Terminal Aerodrome Forecast
Issued by NWS Cleveland, OH

Home | Current Version | Previous Version | Text Only | Print | Product List | Glossary Off
Versions: 1 2 3 4 5 6 7 8 9 10 11 12 13 14 15 16 17

708
FTUS41 KCLE 191800 AAA
TAFMFD
TAF AMD
KMFD 191825Z 1918/2018 30010G16KT P6SM OVC030
     FM192100 31010KT P6SM OVC035
     FM200800 33005KT P6SM BKN035
     FM201300 01010KT P6SM SCT035 BKN250=

USA.gov is the U.S. government's official web portal to all federal, state and local government web resources and services.